Home   Weather   Waren (Müritz)   Past weeks

Flag for Germany Past Weather in Waren (Müritz), Mecklenburg-Western Pomerania, Germany — Yesterday and Last 2 Weeks

Now
59 °F

Passing clouds.


Feels Like: 60 °F
Forecast: 48 / 69 °F
Wind: 3 mph from North

Location: Laage

Current Time: Sep 26, 2016 at 9:06:03 PM

Latest Report: Sep 26, 2016 at 8:20 PM


Visibility: 4 mi

Pressure: 30.21 "Hg

Humidity: 88%

Dew Point: 55 °F

Location of Waren (Müritz)Location

Past Weather in Waren (Müritz) — Graph

°F

Waren (Müritz) Temperature Yesterday

Maximum temperature yesterday: 70 °F (at 1:20 PM)
Minimum temperature yesterday: 46 °F (at 5:20 AM)
Average temperature yesterday: 59 °F

High & Low Weather Summary for the Past Weeks

 TemperatureHumidityPressure
High86 °F (Sep 13, 1:20 PM)100% (Sep 12, 3:20 AM)30.27 "Hg (Sep 12, 3:20 AM)
Low46 °F (Sep 22, 4:20 AM)38% (Sep 13, 1:20 PM)29.86 "Hg (Sep 16, 4:20 PM)
Average62 °F73%30.10 "Hg
* Reported Sep 11 7:20 PM — Sep 26 7:20 PM, Waren (Müritz), Weather by CustomWeather, © 2016

Note: Actual official high and low records may vary slightly from our data, if they occured in-between our weather recording intervals... More about our weather records

Advertising

Waren (Müritz) Weather History for the Previous 24 Hours

Scroll right to see more
 ConditionsComfort  
Time TempWeatherWind HumidityBarometerVisibility
7:20 PM
Mon, Sep 26
61 °FPassing clouds.3 mph77%30.21 "Hg4 mi
6:20 PM63 °FPartly sunny.10 mph77%30.18 "HgN/A
5:20 PM68 °FPartly sunny.10 mph64%30.18 "HgN/A
4:20 PM70 °FPartly sunny.7 mph50%30.18 "HgN/A
3:20 PM72 °FScattered clouds.6 mph47%30.18 "HgN/A
2:20 PM70 °FPartly sunny.3 mph50%30.18 "HgN/A
1:20 PM70 °FPartly sunny.6 mph50%30.18 "HgN/A
12:20 PM66 °FPartly sunny.6 mph60%30.18 "HgN/A
11:20 AM64 °FPartly sunny.7 mph60%30.18 "HgN/A
10:20 AM59 °FPartly sunny.3 mph72%30.18 "HgN/A
9:20 AM57 °FPartly sunny.3 mph77%30.18 "HgN/A
8:20 AM50 °FPartly sunny.No wind88%30.15 "HgN/A
7:20 AM52 °FPartly sunny.5 mph82%30.12 "HgN/A
6:20 AM52 °FPassing clouds.6 mph88%30.12 "HgN/A
5:20 AM52 °FPassing clouds.6 mph82%30.12 "HgN/A
4:20 AM54 °FPassing clouds.2 mph82%30.12 "HgN/A
3:20 AM54 °FPassing clouds.5 mph77%30.12 "HgN/A
2:20 AM55 °FPassing clouds.2 mph72%30.12 "HgN/A
1:20 AM55 °FPassing clouds.5 mph72%30.12 "HgN/A
12:20 AM55 °FPassing clouds.6 mph72%30.12 "HgN/A
11:20 PM
Sun, Sep 25
59 °FPassing clouds.7 mph68%30.12 "HgN/A
10:20 PM59 °FPassing clouds.6 mph68%30.12 "HgN/A
9:20 PM61 °FPassing clouds.6 mph63%30.12 "HgN/A
Weather by CustomWeather, © 2016

See weather overviewHow to use our weather pages